Home   Weather   Montpelier   Past weeks

Flag for USA Past Weather in Montpelier, Vermont, USA — Yesterday and Last 2 Weeks

Now
28 °F

Light snow. Ice fog.


Feels Like: 19 °F
Forecast: 19 / 35 °F
Wind: 10 mph from South

Location: Knapp State Airport

Current Time: Dec 5, 2016 at 1:56:07 pm

Latest Report: Dec 5, 2016 at 1:00 pm


Visibility: 1 mi

Pressure: 29.87 "Hg

Humidity: 89%

Dew Point: 25 °F

Location of MontpelierLocation

Past Weather in Montpelier — Graph

°F

Montpelier Temperature Yesterday

Maximum temperature yesterday: 29 °F (at 1:51 pm)
Minimum temperature yesterday: 16 °F (at 11:51 pm)
Average temperature yesterday: 25 °F

High & Low Weather Summary for the Past Weeks

 TemperatureHumidityPressure
High45 °F (Dec 1, 10:51 am)100% (Nov 20, 1:59 pm)30.40 "Hg (Nov 20, 1:59 pm)
Low16 °F (Dec 4, 11:51 pm)67% (Nov 28, 1:51 pm)29.20 "Hg (Nov 20, 1:59 pm)
Average31 °F89%29.99 "Hg
* Reported Nov 20 1:00 pm — Dec 5 1:00 pm, Montpelier, Weather by CustomWeather, © 2016

Note: Actual official high and low records may vary slightly from our data, if they occured in-between our weather recording intervals... More about our weather records

Advertising

Montpelier Weather History for the Previous 24 Hours

Scroll right to see more
 ConditionsComfort  
Time TempWeatherWind HumidityBarometerVisibility
1:00 pm
Mon, Dec 5
28 °FLight snow. Ice fog.10 mph89%29.87 "Hg1 mi
11:57 am27 °FLight snow. Ice fog.7 mph89%29.88 "Hg1 mi
10:51 am26 °FLight snow. Ice fog.8 mph92%29.97 "Hg1 mi
9:51 am24 °FLight snow. Ice fog.No wind96%30.00 "Hg1 mi
8:51 am22 °FLight snow. Ice fog.No wind100%30.02 "Hg1 mi
7:58 am22 °FLight snow. Ice fog.No wind96%29.97 "Hg1 mi
7:03 am23 °FLight snow. Ice fog.7 mph92%30.02 "Hg1 mi
6:58 am23 °FLight snow. Ice fog.6 mph92%30.02 "Hg1 mi
5:51 am24 °FMostly cloudy.5 mph81%30.09 "Hg10 mi
4:51 am21 °FClear.3 mph96%30.09 "Hg10 mi
3:51 am19 °FClear.No wind96%30.13 "Hg10 mi
2:51 am19 °FClear.No wind92%30.14 "Hg10 mi
1:51 am18 °FPassing clouds.No wind100%30.14 "Hg9 mi
12:51 am18 °FClear.3 mph96%30.17 "Hg10 mi
11:51 pm
Sun, Dec 4
16 °FClear.No wind92%30.19 "Hg10 mi
10:51 pm19 °FClear.No wind96%30.20 "Hg10 mi
9:51 pm19 °FClear.No wind92%30.22 "Hg10 mi
8:51 pm19 °FClear.3 mph96%30.25 "Hg10 mi
7:51 pm22 °FPassing clouds.No wind89%30.28 "Hg10 mi
6:51 pm24 °FOvercast.No wind81%30.26 "Hg10 mi
5:51 pm25 °FPassing clouds.No wind78%30.27 "Hg10 mi
4:51 pm27 °FPassing clouds.No wind75%30.27 "Hg10 mi
4:04 pm28 °FPartly sunny.7 mph72%30.22 "Hg10 mi
3:51 pm27 °FScattered clouds.6 mph75%30.27 "Hg10 mi
2:51 pm29 °FScattered clouds.10 mph72%30.27 "Hg10 mi
1:51 pm29 °FScattered clouds.10 mph75%30.25 "Hg10 mi
Weather by CustomWeather, © 2016

See weather overviewHow to use our weather pages